Location: Limerick
(52.6650°N, 8.6230°W)
Time: 19:18:55
(UTC+01:00)

ISS - Pass Details

Date: 24 May 2017
Orbit: 402 x 408 km, 51.6° (Epoch: 29 May)

Event Time Altitude Azimuth Distance (km) Brightness Sun altitude
Rises 02:29:11 0° 273° (W) 2,333 -0.1 -15.5°
Reaches altitude 10° 02:31:16 10° 271° (W) 1,470 -1.1 -15.4°
Maximum altitude 02:34:33 72° 187° (S) 433 -4.0 -15.3°
Drops below altitude 10° 02:37:49 10° 103° (ESE) 1,465 -1.0 -15.1°
Sets 02:39:54 0° 101° (E) 2,322 0.1 -15.1°
